owner,sensor,date,latitude,longitude,vertical_datum,mass_concentration_of_oxygen_in_sea_water,qcFlag 
DISL,ioos:station:DISL:MHPA:1,2013-04-01T00:00:00Z,30.6671,-87.9365,4.353,9.65,1111122 
DISL,ioos:station:DISL:MHPA:1,2013-04-01T00:30:00Z,30.6671,-87.9365,4.24,9.59,1111122 
DISL,ioos:station:DISL:MHPA:1,2013-04-01T01:00:00Z,30.6671,-87.9365,4.263,9.68,1111122 
DISL,ioos:station:DISL:MHPA:1,2013-04-01T01:30:00Z,30.6671,-87.9365,4.175,9.43,1111122 
DISL,ioos:station:DISL:MHPA:1,2013-04-01T02:00:00Z,30.6671,-87.9365,3.989,9.32,1111122 
DISL,ioos:station:DISL:MHPA:1,2013-04-01T02:30:00Z,30.6671,-87.9365,3.893,9.35,1111122 
DISL,ioos:station:DISL:MHPA:1,2013-04-01T03:00:00Z,30.6671,-87.9365,3.814,9.45,1111122 
DISL,ioos:station:DISL:MHPA:1,2013-04-01T03:30:00Z,30.6671,-87.9365,3.715,9.67,1111122 
DISL,ioos:station:DISL:MHPA:1,2013-04-01T04:00:00Z,30.6671,-87.9365,3.682,9.5,1111122 
DISL,ioos:station:DISL:MHPA:1,2013-04-01T04:30:00Z,30.6671,-87.9365,3.644,9.39,1111122 
DISL,ioos:station:DISL:MHPA:1,2013-04-01T05:00:00Z,30.6671,-87.9365,3.58,9.41,1111122 
DISL,ioos:station:DISL:MHPA:1,2013-04-01T05:30:00Z,30.6671,-87.9365,3.51,9.27,1111122 
DISL,ioos:station:DISL:MHPA:1,2013-04-01T06:00:00Z,30.6671,-87.9365,3.434,9.23,1111122 
DISL,ioos:station:DISL:MHPA:1,2013-04-01T06:30:00Z,30.6671,-87.9365,3.364,8.97,1111122 
DISL,ioos:station:DISL:MHPA:1,2013-04-01T07:00:00Z,30.6671,-87.9365,3.31,8.98,1111122 
DISL,ioos:station:DISL:MHPA:1,2013-04-01T07:30:00Z,30.6671,-87.9365,3.272,8.97,1111122 
DISL,ioos:station:DISL:MHPA:1,2013-04-01T08:00:00Z,30.6671,-87.9365,3.256,8.97,1111122 
DISL,ioos:station:DISL:MHPA:1,2013-04-01T08:30:00Z,30.6671,-87.9365,3.248,8.92,1111122 
DISL,ioos:station:DISL:MHPA:1,2013-04-01T09:00:00Z,30.6671,-87.9365,3.294,8.84,1111122 
DISL,ioos:station:DISL:MHPA:1,2013-04-01T09:30:00Z,30.6671,-87.9365,3.392,8.44,1111122 
DISL,ioos:station:DISL:MHPA:1,2013-04-01T10:00:00Z,30.6671,-87.9365,3.426,8.77,1111122 
DISL,ioos:station:DISL:MHPA:1,2013-04-01T10:30:00Z,30.6671,-87.9365,3.508,8.75,1111122 
DISL,ioos:station:DISL:MHPA:1,2013-04-01T11:00:00Z,30.6671,-87.9365,3.568,8.49,1111122 
DISL,ioos:station:DISL:MHPA:1,2013-04-01T11:30:00Z,30.6671,-87.9365,3.62,8.36,1111122 
DISL,ioos:station:DISL:MHPA:1,2013-04-01T12:00:00Z,30.6671,-87.9365,3.647,8.37,1111122 
DISL,ioos:station:DISL:MHPA:1,2013-04-01T12:30:00Z,30.6671,-87.9365,3.629,8.22,1111122 
DISL,ioos:station:DISL:MHPA:1,2013-04-01T13:00:00Z,30.6671,-87.9365,3.671,8.46,1111122 
DISL,ioos:station:DISL:MHPA:1,2013-04-01T13:30:00Z,30.6671,-87.9365,3.744,8.43,1111122 
DISL,ioos:station:DISL:MHPA:1,2013-04-01T14:00:00Z,30.6671,-87.9365,3.77,8.74,1111122 
DISL,ioos:station:DISL:MHPA:1,2013-04-01T14:30:00Z,30.6671,-87.9365,3.822,8.83,1111122 
DISL,ioos:station:DISL:MHPA:1,2013-04-01T15:00:00Z,30.6671,-87.9365,3.951,8.78,1111122 
DISL,ioos:station:DISL:MHPA:1,2013-04-01T15:30:00Z,30.6671,-87.9365,4.043,8.84,1111122 
DISL,ioos:station:DISL:MHPA:1,2013-04-01T16:00:00Z,30.6671,-87.9365,4.094,8.93,1111122 
DISL,ioos:station:DISL:MHPA:1,2013-04-01T16:30:00Z,30.6671,-87.9365,4.224,8.82,1111122 
DISL,ioos:station:DISL:MHPA:1,2013-04-01T17:00:00Z,30.6671,-87.9365,4.416,8.89,1111122 
DISL,ioos:station:DISL:MHPA:1,2013-04-01T17:30:00Z,30.6671,-87.9365,4.433,9.03,1111122 
DISL,ioos:station:DISL:MHPA:1,2013-04-01T18:00:00Z,30.6671,-87.9365,4.439,9.01,1111122 
DISL,ioos:station:DISL:MHPA:1,2013-04-01T18:30:00Z,30.6671,-87.9365,4.474,8.76,1111122 
DISL,ioos:station:DISL:MHPA:1,2013-04-01T19:00:00Z,30.6671,-87.9365,4.434,9.04,1111122 
DISL,ioos:station:DISL:MHPA:1,2013-04-01T19:30:00Z,30.6671,-87.9365,4.454,9.14,1111122 
DISL,ioos:station:DISL:MHPA:1,2013-04-01T20:00:00Z,30.6671,-87.9365,4.42,9.1,1111122 
DISL,ioos:station:DISL:MHPA:1,2013-04-01T20:30:00Z,30.6671,-87.9365,4.456,9.03,1111122 
DISL,ioos:station:DISL:MHPA:1,2013-04-01T21:00:00Z,30.6671,-87.9365,4.458,9.0,1111122 
DISL,ioos:station:DISL:MHPA:1,2013-04-01T21:30:00Z,30.6671,-87.9365,4.408,8.51,1111122 
DISL,ioos:station:DISL:MHPA:1,2013-04-01T22:00:00Z,30.6671,-87.9365,4.369,9.29,1111122 
DISL,ioos:station:DISL:MHPA:1,2013-04-01T22:30:00Z,30.6671,-87.9365,4.334,8.89,1111122 
DISL,ioos:station:DISL:MHPA:1,2013-04-01T23:00:00Z,30.6671,-87.9365,4.293,9.22,1111122 
DISL,ioos:station:DISL:MHPA:1,2013-04-01T23:30:00Z,30.6671,-87.9365,4.197,9.3,1111122 
DISL,ioos:station:DISL:MHPA:1,2013-04-02T00:00:00Z,30.6671,-87.9365,4.109,9.13,1111122 
DISL,ioos:station:DISL:MHPA:1,2013-04-02T00:30:00Z,30.6671,-87.9365,4.06,9.0,1111122 
DISL,ioos:station:DISL:MHPA:1,2013-04-02T01:00:00Z,30.6671,-87.9365,3.981,9.27,1111122 
DISL,ioos:station:DISL:MHPA:1,2013-04-02T01:30:00Z,30.6671,-87.9365,3.897,9.26,1111122 
DISL,ioos:station:DISL:MHPA:1,2013-04-02T02:00:00Z,30.6671,-87.9365,3.832,9.2,1111122 
DISL,ioos:station:DISL:MHPA:1,2013-04-02T02:30:00Z,30.6671,-87.9365,3.775,9.09,1111122 
DISL,ioos:station:DISL:MHPA:1,2013-04-02T03:00:00Z,30.6671,-87.9365,3.713,9.15,1111122 
DISL,ioos:station:DISL:MHPA:1,2013-04-02T03:30:00Z,30.6671,-87.9365,3.645,9.1,1111122 
DISL,ioos:station:DISL:MHPA:1,2013-04-02T04:00:00Z,30.6671,-87.9365,3.575,8.8,1111122 
DISL,ioos:station:DISL:MHPA:1,2013-04-02T04:30:00Z,30.6671,-87.9365,3.505,8.79,1111122 
DISL,ioos:station:DISL:MHPA:1,2013-04-02T05:00:00Z,30.6671,-87.9365,3.426,8.62,1111122 
DISL,ioos:station:DISL:MHPA:1,2013-04-02T05:30:00Z,30.6671,-87.9365,3.351,8.48,1111122 
DISL,ioos:station:DISL:MHPA:1,2013-04-02T06:00:00Z,30.6671,-87.9365,3.292,8.45,1111122 
DISL,ioos:station:DISL:MHPA:1,2013-04-02T06:30:00Z,30.6671,-87.9365,3.238,8.52,1111122 
DISL,ioos:station:DISL:MHPA:1,2013-04-02T07:00:00Z,30.6671,-87.9365,3.186,8.79,1111122 
DISL,ioos:station:DISL:MHPA:1,2013-04-02T07:30:00Z,30.6671,-87.9365,3.141,8.79,1111122 
DISL,ioos:station:DISL:MHPA:1,2013-04-02T08:00:00Z,30.6671,-87.9365,3.105,8.68,1111122 
DISL,ioos:station:DISL:MHPA:1,2013-04-02T08:30:00Z,30.6671,-87.9365,3.077,8.35,1111122 
DISL,ioos:station:DISL:MHPA:1,2013-04-02T09:00:00Z,30.6671,-87.9365,3.053,8.19,1111122 
DISL,ioos:station:DISL:MHPA:1,2013-04-02T09:30:00Z,30.6671,-87.9365,3.035,8.02,1111122 
DISL,ioos:station:DISL:MHPA:1,2013-04-02T10:00:00Z,30.6671,-87.9365,3.02,7.93,1111122 
DISL,ioos:station:DISL:MHPA:1,2013-04-02T10:30:00Z,30.6671,-87.9365,3.006,8.21,1111122 
DISL,ioos:station:DISL:MHPA:1,2013-04-02T11:00:00Z,30.6671,-87.9365,2.998,7.9,1111122 
DISL,ioos:station:DISL:MHPA:1,2013-04-02T11:30:00Z,30.6671,-87.9365,3.003,7.89,1111122 
DISL,ioos:station:DISL:MHPA:1,2013-04-02T12:00:00Z,30.6671,-87.9365,3.024,8.27,1111122 
DISL,ioos:station:DISL:MHPA:1,2013-04-02T12:30:00Z,30.6671,-87.9365,3.062,8.36,1111122 
DISL,ioos:station:DISL:MHPA:1,2013-04-02T13:00:00Z,30.6671,-87.9365,3.123,8.39,1111122 
DISL,ioos:station:DISL:MHPA:1,2013-04-02T13:30:00Z,30.6671,-87.9365,3.212,8.26,1111122 
DISL,ioos:station:DISL:MHPA:1,2013-04-02T14:00:00Z,30.6671,-87.9365,3.307,8.36,1111122 
DISL,ioos:station:DISL:MHPA:1,2013-04-02T14:30:00Z,30.6671,-87.9365,3.409,7.81,1111122 
DISL,ioos:station:DISL:MHPA:1,2013-04-02T15:00:00Z,30.6671,-87.9365,3.589,7.35,1111122 
DISL,ioos:station:DISL:MHPA:1,2013-04-02T15:30:00Z,30.6671,-87.9365,3.734,7.61,1111122 
DISL,ioos:station:DISL:MHPA:1,2013-04-02T16:00:00Z,30.6671,-87.9365,3.879,8.4,1111122 
DISL,ioos:station:DISL:MHPA:1,2013-04-02T16:30:00Z,30.6671,-87.9365,4.001,8.06,1111122 
DISL,ioos:station:DISL:MHPA:1,2013-04-02T17:00:00Z,30.6671,-87.9365,4.101,8.16,1111122 
DISL,ioos:station:DISL:MHPA:1,2013-04-02T17:30:00Z,30.6671,-87.9365,4.19,8.93,1111122 
DISL,ioos:station:DISL:MHPA:1,2013-04-02T18:00:00Z,30.6671,-87.9365,4.31,8.62,1111122 
DISL,ioos:station:DISL:MHPA:1,2013-04-02T18:30:00Z,30.6671,-87.9365,4.412,9.11,1111122 
DISL,ioos:station:DISL:MHPA:1,2013-04-02T19:00:00Z,30.6671,-87.9365,4.54,8.92,1111122 
DISL,ioos:station:DISL:MHPA:1,2013-04-02T19:30:00Z,30.6671,-87.9365,4.661,9.1,1111122 
DISL,ioos:station:DISL:MHPA:1,2013-04-02T20:00:00Z,30.6671,-87.9365,4.74,9.06,1111122 
DISL,ioos:station:DISL:MHPA:1,2013-04-02T20:30:00Z,30.6671,-87.9365,4.805,9.32,1111122 
DISL,ioos:station:DISL:MHPA:1,2013-04-02T21:00:00Z,30.6671,-87.9365,4.808,9.52,1111122 
DISL,ioos:station:DISL:MHPA:1,2013-04-02T21:30:00Z,30.6671,-87.9365,4.937,10.07,1111122 
DISL,ioos:station:DISL:MHPA:1,2013-04-02T22:00:00Z,30.6671,-87.9365,4.954,10.32,1111122 
DISL,ioos:station:DISL:MHPA:1,2013-04-02T22:30:00Z,30.6671,-87.9365,4.819,10.45,1111122 
DISL,ioos:station:DISL:MHPA:1,2013-04-02T23:00:00Z,30.6671,-87.9365,4.756,10.52,1111122 
DISL,ioos:station:DISL:MHPA:1,2013-04-02T23:30:00Z,30.6671,-87.9365,4.644,10.33,1111122 
DISL,ioos:station:DISL:MHPA:1,2013-04-03T00:00:00Z,30.6671,-87.9365,4.569,10.29,1111122 
DISL,ioos:station:DISL:MHPA:1,2013-04-03T00:30:00Z,30.6671,-87.9365,4.479,9.73,1111122 
DISL,ioos:station:DISL:MHPA:1,2013-04-03T01:00:00Z,30.6671,-87.9365,4.392,9.67,1111122 
DISL,ioos:station:DISL:MHPA:1,2013-04-03T01:30:00Z,30.6671,-87.9365,4.281,9.03,1111122 
DISL,ioos:station:DISL:MHPA:1,2013-04-03T02:00:00Z,30.6671,-87.9365,4.17,9.32,1111122 
DISL,ioos:station:DISL:MHPA:1,2013-04-03T02:30:00Z,30.6671,-87.9365,4.073,8.96,1111122 
DISL,ioos:station:DISL:MHPA:1,2013-04-03T03:00:00Z,30.6671,-87.9365,3.971,9.18,1111122 
DISL,ioos:station:DISL:MHPA:1,2013-04-03T03:30:00Z,30.6671,-87.9365,3.847,8.95,1111122 
DISL,ioos:station:DISL:MHPA:1,2013-04-03T04:00:00Z,30.6671,-87.9365,3.755,8.89,1111122 
DISL,ioos:station:DISL:MHPA:1,2013-04-03T04:30:00Z,30.6671,-87.9365,3.679,8.88,1111122 
DISL,ioos:station:DISL:MHPA:1,2013-04-03T05:00:00Z,30.6671,-87.9365,3.612,8.78,1111122 
DISL,ioos:station:DISL:MHPA:1,2013-04-03T05:30:00Z,30.6671,-87.9365,3.533,8.86,1111122 
DISL,ioos:station:DISL:MHPA:1,2013-04-03T06:00:00Z,30.6671,-87.9365,3.457,8.65,1111122 
DISL,ioos:station:DISL:MHPA:1,2013-04-03T06:30:00Z,30.6671,-87.9365,3.398,8.61,1111122 
DISL,ioos:station:DISL:MHPA:1,2013-04-03T07:00:00Z,30.6671,-87.9365,3.344,8.63,1111122 
DISL,ioos:station:DISL:MHPA:1,2013-04-03T07:30:00Z,30.6671,-87.9365,3.281,8.68,1111122 
DISL,ioos:station:DISL:MHPA:1,2013-04-03T08:00:00Z,30.6671,-87.9365,3.218,8.59,1111122 
DISL,ioos:station:DISL:MHPA:1,2013-04-03T08:30:00Z,30.6671,-87.9365,3.162,8.54,1111122 
DISL,ioos:station:DISL:MHPA:1,2013-04-03T09:00:00Z,30.6671,-87.9365,3.127,8.56,1111122 
DISL,ioos:station:DISL:MHPA:1,2013-04-03T09:30:00Z,30.6671,-87.9365,3.111,8.54,1111122 
DISL,ioos:station:DISL:MHPA:1,2013-04-03T10:00:00Z,30.6671,-87.9365,3.085,8.48,1111122 
DISL,ioos:station:DISL:MHPA:1,2013-04-03T10:30:00Z,30.6671,-87.9365,3.058,8.32,1111122 
DISL,ioos:station:DISL:MHPA:1,2013-04-03T11:00:00Z,30.6671,-87.9365,3.056,8.27,1111122 
DISL,ioos:station:DISL:MHPA:1,2013-04-03T11:30:00Z,30.6671,-87.9365,3.094,8.16,1111122 
DISL,ioos:station:DISL:MHPA:1,2013-04-03T12:00:00Z,30.6671,-87.9365,3.123,8.16,1111122 
DISL,ioos:station:DISL:MHPA:1,2013-04-03T12:30:00Z,30.6671,-87.9365,3.152,7.94,1111122 
DISL,ioos:station:DISL:MHPA:1,2013-04-03T13:00:00Z,30.6671,-87.9365,3.207,7.72,1111122 
DISL,ioos:station:DISL:MHPA:1,2013-04-03T13:30:00Z,30.6671,-87.9365,3.256,7.69,1111122 
DISL,ioos:station:DISL:MHPA:1,2013-04-03T14:00:00Z,30.6671,-87.9365,3.274,7.95,1111122 
DISL,ioos:station:DISL:MHPA:1,2013-04-03T14:30:00Z,30.6671,-87.9365,3.309,8.24,1111122 
DISL,ioos:station:DISL:MHPA:1,2013-04-03T15:00:00Z,30.6671,-87.9365,3.356,8.26,1111122 
DISL,ioos:station:DISL:MHPA:1,2013-04-03T15:30:00Z,30.6671,-87.9365,3.444,8.38,1111122 
DISL,ioos:station:DISL:MHPA:1,2013-04-03T16:00:00Z,30.6671,-87.9365,3.524,8.48,1111122 
DISL,ioos:station:DISL:MHPA:1,2013-04-03T16:30:00Z,30.6671,-87.9365,3.605,8.46,1111122 
DISL,ioos:station:DISL:MHPA:1,2013-04-03T17:00:00Z,30.6671,-87.9365,3.605,8.33,1111122 
DISL,ioos:station:DISL:MHPA:1,2013-04-03T17:30:00Z,30.6671,-87.9365,3.575,8.38,1111122 
DISL,ioos:station:DISL:MHPA:1,2013-04-03T18:00:00Z,30.6671,-87.9365,3.636,8.4,1111122 
DISL,ioos:station:DISL:MHPA:1,2013-04-03T18:30:00Z,30.6671,-87.9365,3.652,8.62,1111122 
DISL,ioos:station:DISL:MHPA:1,2013-04-03T19:00:00Z,30.6671,-87.9365,3.477,8.8,1111122 
DISL,ioos:station:DISL:MHPA:1,2013-04-03T19:30:00Z,30.6671,-87.9365,3.436,8.87,1111122 
DISL,ioos:station:DISL:MHPA:1,2013-04-03T20:00:00Z,30.6671,-87.9365,4.354,8.95,1111122 
DISL,ioos:station:DISL:MHPA:1,2013-04-03T20:30:00Z,30.6671,-87.9365,4.419,8.54,1111122 
DISL,ioos:station:DISL:MHPA:1,2013-04-03T21:00:00Z,30.6671,-87.9365,4.563,8.78,1111122 
DISL,ioos:station:DISL:MHPA:1,2013-04-03T21:30:00Z,30.6671,-87.9365,4.578,8.83,1111122 
DISL,ioos:station:DISL:MHPA:1,2013-04-03T22:00:00Z,30.6671,-87.9365,4.228,8.83,1111122 
DISL,ioos:station:DISL:MHPA:1,2013-04-03T22:30:00Z,30.6671,-87.9365,4.12,8.73,1111122 
DISL,ioos:station:DISL:MHPA:1,2013-04-03T23:00:00Z,30.6671,-87.9365,4.005,8.76,1111122 
DISL,ioos:station:DISL:MHPA:1,2013-04-03T23:30:00Z,30.6671,-87.9365,4.506,8.63,1111122 
DISL,ioos:station:DISL:MHPA:1,2013-04-04T00:00:00Z,30.6671,-87.9365,4.975,8.68,1111122 
DISL,ioos:station:DISL:MHPA:1,2013-04-04T00:30:00Z,30.6671,-87.9365,5.017,8.84,1111122 
DISL,ioos:station:DISL:MHPA:1,2013-04-04T01:00:00Z,30.6671,-87.9365,5.369,8.74,1111122 
DISL,ioos:station:DISL:MHPA:1,2013-04-04T01:30:00Z,30.6671,-87.9365,5.166,8.61,1111122 
DISL,ioos:station:DISL:MHPA:1,2013-04-04T02:00:00Z,30.6671,-87.9365,4.799,8.06,1111122 
DISL,ioos:station:DISL:MHPA:1,2013-04-04T02:30:00Z,30.6671,-87.9365,4.498,8.07,1111122 
DISL,ioos:station:DISL:MHPA:1,2013-04-04T03:00:00Z,30.6671,-87.9365,4.347,8.18,1111122 
DISL,ioos:station:DISL:MHPA:1,2013-04-04T03:30:00Z,30.6671,-87.9365,4.24,8.43,1111122 
DISL,ioos:station:DISL:MHPA:1,2013-04-04T04:00:00Z,30.6671,-87.9365,4.096,8.44,1111122 
DISL,ioos:station:DISL:MHPA:1,2013-04-04T04:30:00Z,30.6671,-87.9365,3.983,8.09,1111122 
DISL,ioos:station:DISL:MHPA:1,2013-04-04T05:00:00Z,30.6671,-87.9365,3.94,8.01,1111122 
DISL,ioos:station:DISL:MHPA:1,2013-04-04T05:30:00Z,30.6671,-87.9365,3.931,7.94,1111122 
DISL,ioos:station:DISL:MHPA:1,2013-04-04T06:00:00Z,30.6671,-87.9365,3.889,8.01,1111122 
DISL,ioos:station:DISL:MHPA:1,2013-04-04T06:30:00Z,30.6671,-87.9365,3.779,7.87,1111122 
DISL,ioos:station:DISL:MHPA:1,2013-04-04T07:00:00Z,30.6671,-87.9365,3.635,7.82,1111122 
DISL,ioos:station:DISL:MHPA:1,2013-04-04T07:30:00Z,30.6671,-87.9365,3.514,7.63,1111122 
DISL,ioos:station:DISL:MHPA:1,2013-04-04T08:00:00Z,30.6671,-87.9365,3.461,7.55,1111122 
DISL,ioos:station:DISL:MHPA:1,2013-04-04T08:30:00Z,30.6671,-87.9365,3.418,7.7,1111122 
DISL,ioos:station:DISL:MHPA:1,2013-04-04T09:00:00Z,30.6671,-87.9365,3.426,7.66,1111122 
DISL,ioos:station:DISL:MHPA:1,2013-04-04T09:30:00Z,30.6671,-87.9365,3.415,7.56,1111122 
DISL,ioos:station:DISL:MHPA:1,2013-04-04T10:00:00Z,30.6671,-87.9365,3.397,7.84,1111122 
DISL,ioos:station:DISL:MHPA:1,2013-04-04T10:30:00Z,30.6671,-87.9365,3.491,7.54,1111122 
DISL,ioos:station:DISL:MHPA:1,2013-04-04T11:00:00Z,30.6671,-87.9365,3.561,7.63,1111122 
DISL,ioos:station:DISL:MHPA:1,2013-04-04T11:30:00Z,30.6671,-87.9365,3.509,7.75,1111122 
DISL,ioos:station:DISL:MHPA:1,2013-04-04T12:00:00Z,30.6671,-87.9365,3.418,7.81,1111122 
DISL,ioos:station:DISL:MHPA:1,2013-04-04T12:30:00Z,30.6671,-87.9365,3.372,7.83,1111122 
DISL,ioos:station:DISL:MHPA:1,2013-04-04T13:00:00Z,30.6671,-87.9365,3.396,7.31,1111122 
DISL,ioos:station:DISL:MHPA:1,2013-04-04T13:30:00Z,30.6671,-87.9365,3.5,7.33,1111122 
DISL,ioos:station:DISL:MHPA:1,2013-04-04T14:00:00Z,30.6671,-87.9365,3.591,7.63,1111122 
DISL,ioos:station:DISL:MHPA:1,2013-04-04T14:30:00Z,30.6671,-87.9365,3.642,7.63,1111122 
DISL,ioos:station:DISL:MHPA:1,2013-04-04T15:00:00Z,30.6671,-87.9365,3.772,7.86,1111122 
DISL,ioos:station:DISL:MHPA:1,2013-04-04T15:30:00Z,30.6671,-87.9365,3.834,7.46,1111122 
DISL,ioos:station:DISL:MHPA:1,2013-04-04T16:00:00Z,30.6671,-87.9365,3.974,7.34,1111122 
DISL,ioos:station:DISL:MHPA:1,2013-04-04T16:30:00Z,30.6671,-87.9365,4.12,7.74,1111122 
DISL,ioos:station:DISL:MHPA:1,2013-04-04T17:00:00Z,30.6671,-87.9365,4.122,7.83,1111122 
DISL,ioos:station:DISL:MHPA:1,2013-04-04T17:30:00Z,30.6671,-87.9365,4.154,8.05,1111122 
DISL,ioos:station:DISL:MHPA:1,2013-04-04T18:00:00Z,30.6671,-87.9365,4.236,8.45,1111122 
DISL,ioos:station:DISL:MHPA:1,2013-04-04T18:30:00Z,30.6671,-87.9365,4.299,8.01,1111122 
DISL,ioos:station:DISL:MHPA:1,2013-04-04T19:00:00Z,30.6671,-87.9365,4.408,8.33,1111122 
DISL,ioos:station:DISL:MHPA:1,2013-04-04T19:30:00Z,30.6671,-87.9365,4.531,8.93,1111122 
DISL,ioos:station:DISL:MHPA:1,2013-04-04T20:00:00Z,30.6671,-87.9365,4.568,9.19,1111122 
DISL,ioos:station:DISL:MHPA:1,2013-04-04T20:30:00Z,30.6671,-87.9365,4.608,8.93,1111122 
DISL,ioos:station:DISL:MHPA:1,2013-04-04T21:00:00Z,30.6671,-87.9365,4.709,8.86,1111122 
DISL,ioos:station:DISL:MHPA:1,2013-04-04T21:30:00Z,30.6671,-87.9365,4.785,9.36,1111122 
DISL,ioos:station:DISL:MHPA:1,2013-04-04T22:00:00Z,30.6671,-87.9365,4.901,9.31,1111122 
DISL,ioos:station:DISL:MHPA:1,2013-04-04T22:30:00Z,30.6671,-87.9365,4.857,9.04,1111122 
DISL,ioos:station:DISL:MHPA:1,2013-04-04T23:00:00Z,30.6671,-87.9365,4.791,9.12,1111122 
DISL,ioos:station:DISL:MHPA:1,2013-04-04T23:30:00Z,30.6671,-87.9365,4.717,8.84,1111122 
DISL,ioos:station:DISL:MHPA:1,2013-04-05T00:00:00Z,30.6671,-87.9365,4.767,8.56,1111122 
DISL,ioos:station:DISL:MHPA:1,2013-04-05T00:30:00Z,30.6671,-87.9365,4.725,9.0,1111122 
DISL,ioos:station:DISL:MHPA:1,2013-04-05T01:00:00Z,30.6671,-87.9365,4.642,8.82,1111122 
DISL,ioos:station:DISL:MHPA:1,2013-04-05T01:30:00Z,30.6671,-87.9365,4.564,8.74,1111122 
DISL,ioos:station:DISL:MHPA:1,2013-04-05T02:00:00Z,30.6671,-87.9365,4.43,8.63,1111122 
DISL,ioos:station:DISL:MHPA:1,2013-04-05T02:30:00Z,30.6671,-87.9365,4.313,8.3,1111122 
DISL,ioos:station:DISL:MHPA:1,2013-04-05T03:00:00Z,30.6671,-87.9365,4.214,8.67,1111122 
DISL,ioos:station:DISL:MHPA:1,2013-04-05T03:30:00Z,30.6671,-87.9365,4.091,8.78,1111122 
DISL,ioos:station:DISL:MHPA:1,2013-04-05T04:00:00Z,30.6671,-87.9365,3.989,8.44,1111122 
DISL,ioos:station:DISL:MHPA:1,2013-04-05T04:30:00Z,30.6671,-87.9365,3.955,8.66,1111122 
DISL,ioos:station:DISL:MHPA:1,2013-04-05T05:00:00Z,30.6671,-87.9365,3.912,8.35,1111122 
DISL,ioos:station:DISL:MHPA:1,2013-04-05T05:30:00Z,30.6671,-87.9365,3.831,8.27,1111122 
DISL,ioos:station:DISL:MHPA:1,2013-04-05T06:00:00Z,30.6671,-87.9365,3.761,8.34,1111122 
DISL,ioos:station:DISL:MHPA:1,2013-04-05T06:30:00Z,30.6671,-87.9365,3.655,8.45,1111122 
DISL,ioos:station:DISL:MHPA:1,2013-04-05T07:00:00Z,30.6671,-87.9365,3.522,8.57,1111122 
DISL,ioos:station:DISL:MHPA:1,2013-04-05T07:30:00Z,30.6671,-87.9365,3.405,8.22,1111122 
DISL,ioos:station:DISL:MHPA:1,2013-04-05T08:00:00Z,30.6671,-87.9365,3.307,8.39,1111122 
DISL,ioos:station:DISL:MHPA:1,2013-04-05T08:30:00Z,30.6671,-87.9365,3.231,8.36,1111122 
DISL,ioos:station:DISL:MHPA:1,2013-04-05T09:00:00Z,30.6671,-87.9365,3.184,8.29,1111122 
DISL,ioos:station:DISL:MHPA:1,2013-04-05T09:30:00Z,30.6671,-87.9365,3.143,8.1,1111122 
DISL,ioos:station:DISL:MHPA:1,2013-04-05T10:00:00Z,30.6671,-87.9365,3.103,8.13,1111122 
DISL,ioos:station:DISL:MHPA:1,2013-04-05T10:30:00Z,30.6671,-87.9365,3.053,8.42,1111122 
DISL,ioos:station:DISL:MHPA:1,2013-04-05T11:00:00Z,30.6671,-87.9365,2.997,8.33,1111122 
DISL,ioos:station:DISL:MHPA:1,2013-04-05T11:30:00Z,30.6671,-87.9365,2.954,8.1,1111122 
DISL,ioos:station:DISL:MHPA:1,2013-04-05T12:00:00Z,30.6671,-87.9365,2.897,8.16,1111122 
DISL,ioos:station:DISL:MHPA:1,2013-04-05T12:30:00Z,30.6671,-87.9365,2.838,8.09,1111122 
DISL,ioos:station:DISL:MHPA:1,2013-04-05T13:00:00Z,30.6671,-87.9365,2.792,8.25,1111122 
DISL,ioos:station:DISL:MHPA:1,2013-04-05T13:30:00Z,30.6671,-87.9365,2.765,8.29,1111122 
DISL,ioos:station:DISL:MHPA:1,2013-04-05T14:00:00Z,30.6671,-87.9365,2.763,8.07,1111122 
DISL,ioos:station:DISL:MHPA:1,2013-04-05T14:30:00Z,30.6671,-87.9365,2.777,8.31,1111122 
DISL,ioos:station:DISL:MHPA:1,2013-04-05T15:00:00Z,30.6671,-87.9365,2.778,8.46,1111122 
DISL,ioos:station:DISL:MHPA:1,2013-04-05T15:30:00Z,30.6671,-87.9365,2.764,8.59,1111122 
DISL,ioos:station:DISL:MHPA:1,2013-04-05T16:00:00Z,30.6671,-87.9365,2.758,8.68,1111122 
DISL,ioos:station:DISL:MHPA:1,2013-04-05T16:30:00Z,30.6671,-87.9365,2.751,8.69,1111122 
DISL,ioos:station:DISL:MHPA:1,2013-04-05T17:00:00Z,30.6671,-87.9365,2.753,8.72,1111122 
DISL,ioos:station:DISL:MHPA:1,2013-04-05T17:30:00Z,30.6671,-87.9365,2.78,8.51,1111122 
DISL,ioos:station:DISL:MHPA:1,2013-04-05T18:00:00Z,30.6671,-87.9365,2.846,8.74,1111122 
DISL,ioos:station:DISL:MHPA:1,2013-04-05T18:30:00Z,30.6671,-87.9365,2.898,8.7,1111122 
DISL,ioos:station:DISL:MHPA:1,2013-04-05T19:00:00Z,30.6671,-87.9365,2.953,8.8,1111122 
DISL,ioos:station:DISL:MHPA:1,2013-04-05T19:30:00Z,30.6671,-87.9365,3.004,8.8,1111122 
DISL,ioos:station:DISL:MHPA:1,2013-04-05T20:00:00Z,30.6671,-87.9365,3.06,9.04,1111122 
DISL,ioos:station:DISL:MHPA:1,2013-04-05T20:30:00Z,30.6671,-87.9365,3.085,9.15,1111122 
DISL,ioos:station:DISL:MHPA:1,2013-04-05T21:00:00Z,30.6671,-87.9365,3.084,9.24,1111122 
DISL,ioos:station:DISL:MHPA:1,2013-04-05T21:30:00Z,30.6671,-87.9365,3.085,9.32,1111122 
DISL,ioos:station:DISL:MHPA:1,2013-04-05T22:00:00Z,30.6671,-87.9365,3.109,9.3,1111122 
DISL,ioos:station:DISL:MHPA:1,2013-04-05T22:30:00Z,30.6671,-87.9365,3.167,9.38,1111122 
DISL,ioos:station:DISL:MHPA:1,2013-04-05T23:00:00Z,30.6671,-87.9365,3.225,9.51,1111122 
DISL,ioos:station:DISL:MHPA:1,2013-04-05T23:30:00Z,30.6671,-87.9365,3.297,9.39,1111122 
DISL,ioos:station:DISL:MHPA:1,2013-04-06T00:00:00Z,30.6671,-87.9365,3.4,9.44,1111122 
DISL,ioos:station:DISL:MHPA:1,2013-04-06T00:30:00Z,30.6671,-87.9365,3.504,9.36,1111122 
DISL,ioos:station:DISL:MHPA:1,2013-04-06T01:00:00Z,30.6671,-87.9365,3.61,9.02,1111122 
DISL,ioos:station:DISL:MHPA:1,2013-04-06T01:30:00Z,30.6671,-87.9365,3.663,8.93,1111122 
DISL,ioos:station:DISL:MHPA:1,2013-04-06T02:00:00Z,30.6671,-87.9365,3.71,9.01,1111122 
DISL,ioos:station:DISL:MHPA:1,2013-04-06T02:30:00Z,30.6671,-87.9365,3.764,8.95,1111122 
DISL,ioos:station:DISL:MHPA:1,2013-04-06T03:00:00Z,30.6671,-87.9365,3.8,8.9,1111122 
DISL,ioos:station:DISL:MHPA:1,2013-04-06T03:30:00Z,30.6671,-87.9365,3.829,8.9,1111122 
DISL,ioos:station:DISL:MHPA:1,2013-04-06T04:00:00Z,30.6671,-87.9365,3.82,8.91,1111122 
DISL,ioos:station:DISL:MHPA:1,2013-04-06T04:30:00Z,30.6671,-87.9365,3.802,8.83,1111122 
DISL,ioos:station:DISL:MHPA:1,2013-04-06T05:00:00Z,30.6671,-87.9365,3.784,8.58,1111122 
DISL,ioos:station:DISL:MHPA:1,2013-04-06T05:30:00Z,30.6671,-87.9365,3.731,8.67,1111122 
DISL,ioos:station:DISL:MHPA:1,2013-04-06T06:00:00Z,30.6671,-87.9365,3.67,8.61,1111122 
DISL,ioos:station:DISL:MHPA:1,2013-04-06T06:30:00Z,30.6671,-87.9365,3.62,8.46,1111122 
DISL,ioos:station:DISL:MHPA:1,2013-04-06T07:00:00Z,30.6671,-87.9365,3.546,8.25,1111122 
DISL,ioos:station:DISL:MHPA:1,2013-04-06T07:30:00Z,30.6671,-87.9365,3.452,8.05,1111122 
DISL,ioos:station:DISL:MHPA:1,2013-04-06T08:00:00Z,30.6671,-87.9365,3.363,8.14,1111122 
DISL,ioos:station:DISL:MHPA:1,2013-04-06T08:30:00Z,30.6671,-87.9365,3.287,8.0,1111122 
DISL,ioos:station:DISL:MHPA:1,2013-04-06T09:00:00Z,30.6671,-87.9365,3.222,7.96,1111122 
DISL,ioos:station:DISL:MHPA:1,2013-04-06T09:30:00Z,30.6671,-87.9365,3.163,7.78,1111122 
DISL,ioos:station:DISL:MHPA:1,2013-04-06T10:00:00Z,30.6671,-87.9365,3.104,8.11,1111122 
DISL,ioos:station:DISL:MHPA:1,2013-04-06T10:30:00Z,30.6671,-87.9365,3.048,8.04,1111122 
DISL,ioos:station:DISL:MHPA:1,2013-04-06T11:00:00Z,30.6671,-87.9365,3.007,8.07,1111122 
DISL,ioos:station:DISL:MHPA:1,2013-04-06T11:30:00Z,30.6671,-87.9365,2.975,8.2,1111122 
DISL,ioos:station:DISL:MHPA:1,2013-04-06T12:00:00Z,30.6671,-87.9365,2.961,8.21,1111122 
DISL,ioos:station:DISL:MHPA:1,2013-04-06T12:30:00Z,30.6671,-87.9365,2.956,8.24,1111122 
DISL,ioos:station:DISL:MHPA:1,2013-04-06T13:00:00Z,30.6671,-87.9365,2.95,8.27,1111122 
DISL,ioos:station:DISL:MHPA:1,2013-04-06T13:30:00Z,30.6671,-87.9365,2.947,8.29,1111122 
DISL,ioos:station:DISL:MHPA:1,2013-04-06T14:00:00Z,30.6671,-87.9365,2.976,8.21,1111122 
DISL,ioos:station:DISL:MHPA:1,2013-04-06T14:30:00Z,30.6671,-87.9365,3.034,7.79,1111122 
DISL,ioos:station:DISL:MHPA:1,2013-04-06T15:00:00Z,30.6671,-87.9365,3.116,8.16,1111122 
DISL,ioos:station:DISL:MHPA:1,2013-04-06T15:30:00Z,30.6671,-87.9365,3.239,8.35,1111122 